Location: Chérisy
(50.2331°N, 2.9131°E)
Time: 22:30:46
(UTC+00:00)

Daily predictions for brighter satellites

Satellite Brightness Start Highest point End
(mag) Time Altitude Azimuth Time Altitude Azimuth Time Altitude Azimuth
Cosmos 1697 Rocket 3.0 17:42:24 10° SW 17:48:01 74° WNW 17:53:41 10° NNE
SL-08 R/B 4.1 17:43:14 10° N 17:48:06 61° WNW 17:52:58 10° SSW
Okean 2 3.6 17:44:48 10° NNW 17:48:59 79° W 17:53:06 10° S
SL-14 R/B 3.3 17:49:09 10° N 17:53:05 60° ENE 17:57:03 10° SSE
MOS 1-B 4.4 17:49:19 10° SE 17:55:01 60° ENE 18:00:45 10° N
Cosmos 1733 3.1 17:51:51 10° S 17:55:33 64° E 17:59:15 10° NNE
MINOTAUR 4 R/B 3.9 17:55:39 10° NNE 17:59:09 79° ESE 18:02:38 10° SSW
Cosmos 1766 3.9 17:58:23 10° SSE 18:01:57 34° E 18:05:34 10° NNE
Cosmos 1674 Rocket 3.6 17:57:55 10° N 18:02:19 63° ENE 18:06:43 10° SSE
Meteor 2-10 4.2 17:57:58 10° S 18:03:29 61° E 18:08:51 10° NNE
Cosmos 1025 Rocket 4.5 18:01:39 10° NNE 18:04:43 19° ENE 18:07:46 10° ESE
ATLAS 2AS CENTAUR R/B 4.3 17:59:37 10° WNW 18:06:04 30° N 18:12:14 10° NE
YAOGAN 1 2.7 18:02:55 10° SE 18:07:06 51° ENE 18:11:18 10° N
Cosmos 968 Rocket 4.3 18:04:00 10° SSE 18:08:29 30° E 18:13:00 10° NE
Okean O Rocket 1.9 18:06:47 10° SE 18:10:57 47° ENE 18:15:12 10° N
Cosmos 2084 3.9 18:08:42 10° WSW 18:12:26 53° NW 18:16:12 10° NE
Lacrosse 4 Rocket 3.1 18:11:14 10° SE 18:13:13 13° ESE 18:13:56 13° E
SKYMED 2 3.6 18:09:07 10° NNE 18:13:30 88° W 18:17:50 10° SSW
Meteor 2-5 Rocket 4.1 18:09:17 10° N 18:14:31 41° ENE 18:19:43 10° SE
Nadezhda 4 Rocket 4.1 18:09:50 10° SSE 18:15:56 53° E 18:22:02 10° NNE
Cosmos 2285 Rocket 4.0 18:14:35 10° NNW 18:20:58 76° ENE 18:27:22 10° SSE
PSLV R/B 4.2 18:19:36 10° S 18:23:16 62° W 18:26:54 10° NNW
Cosmos 1726 2.0 18:20:25 10° S 18:24:02 78° E 18:27:43 10° NNE
USA 186 3.2 18:22:42 17° E 18:24:04 21° ENE 18:26:42 10° NNE
Cosmos 2322 Rocket 3.1 18:19:43 10° SSE 18:24:20 26° ESE 18:28:57 10° NE
Cosmos 1470 3.5 18:25:29 10° SSE 18:28:48 28° E 18:32:08 10° NNE
Cosmos 1378 Rocket 3.8 18:24:30 10° NNW 18:28:54 73° W 18:33:12 10° S
CZ-4B R/B 3.2 18:24:05 10° SSE 18:29:29 88° WSW 18:35:03 10° NNW
Cosmos 1975 Rocket 3.8 18:26:01 10° N 18:29:59 32° ENE 18:33:08 14° SE
Cosmos 1980 Rocket 2.5 18:24:30 10° SW 18:30:07 69° WNW 18:35:45 10° NNE
ARGOS Delta rocket 3.9 18:25:28 10° NNE 18:30:46 77° E 18:35:46 10° S
Cosmos 2292 Rocket 3.7 18:34:05 10° S 18:38:55 49° E 18:42:39 10° NNE
Meteor 2-14 Rocket 4.5 18:34:44 10° S 18:40:49 85° W 18:46:55 10° N
Cosmos 1733 Rocket 4.3 18:38:51 10° SSW 18:43:07 45° WNW 18:47:25 10° N
USA 215 3.3 18:37:32 10° ENE 18:44:06 81° NNW 18:50:39 10° WSW
COBE Rocket 4.4 18:42:58 10° S 18:47:45 61° W 18:52:26 10° NNW
Cosmos 1844 Rocket 2.9 18:43:38 10° NNW 18:49:14 55° NE 18:52:58 21° SE
Cosmos 2278 3.8 18:47:49 10° SSW 18:53:30 79° WNW 18:59:14 10° NNE
SL-16 R/B 2.2 18:48:47 10° S 18:54:19 57° ESE 18:59:52 10° NE
Cosmos 1570 Rocket 4.2 18:49:17 10° NNW 18:54:33 76° WSW 18:59:46 10° SSE
Landsat 5 4.1 18:51:03 10° NNE 18:55:16 38° E 18:59:24 10° SSE
Cosmos 1092 Rocket 4.0 18:51:14 10° S 18:57:24 61° E 19:03:34 10° NNE
DMSP B5D1-3 4.4 18:55:33 10° NNE 19:00:42 85° ESE 19:05:50 10° SSW
Resurs 01 Rocket 2.9 19:01:19 23° ENE 19:01:20 23° ENE 19:04:49 10° N
SJ-6B 2.7 19:02:07 34° SE 19:03:29 56° ENE 19:07:13 10° N
Meteor 2-21 Rocket 4.5 18:57:28 10° SSW 19:03:32 82° WNW 19:09:37 10° N
Cosmos 2278 Rocket 3.9 19:00:05 10° N 19:03:54 18° NNE 19:05:41 16° ENE
Cosmos 1437 Rocket 2.7 19:02:40 10° SSW 19:06:25 79° WNW 19:10:10 10° N
H-2A R/B 3.5 19:07:11 26° NE 19:07:11 26° NE 19:09:58 10° N
Gbstr 26 Del rocket 4.5 18:59:10 10° WSW 19:06:51 87° SSE 19:12:39 22° ENE
Cosmos 2263 Rocket 4.1 19:03:10 10° NW 19:08:04 30° WSW 19:12:57 10° SSW
Meteor 1-24 Rocket 3.5 19:04:38 10° NNW 19:09:58 88° W 19:15:22 10° S
Resurs 1-3 3.7 19:11:26 39° ESE 19:12:38 51° ENE 19:16:54 10° N
SL-4 R/B 3.8 19:11:29 10° W 19:15:21 29° SW 19:17:52 18° S
Cosmos 921 Rocket 4.4 19:12:12 10° N 19:15:35 24° NE 19:15:35 24° NE
MetOp-A 4.2 19:17:19 33° NE 19:17:19 33° NE 19:20:31 10° N
Cosmos 2084 Rocket 3.6 19:14:45 10° NW 19:18:32 58° SW 19:19:51 36° S
USA 267 4.5 19:15:03 10° SSE 19:20:57 35° SW 19:26:54 10° WNW
Okean-O 2.5 19:20:29 35° SSE 19:22:18 78° ENE 19:26:45 10° NNW
CZ-4 R/B 2.9 19:19:49 10° SSW 19:23:44 38° W 19:27:40 10° NNW
Cosmos 1486 Rocket 4.1 19:18:40 10° S 19:23:47 50° ESE 19:28:57 10° NNE
Cosmos 1844 3.6 19:18:12 10° NNW 19:23:48 80° ENE 19:26:12 36° SE
OBJECT-B 1.7 19:24:56 36° NW 19:24:56 36° NW 19:26:46 10° NNW
IGS 5A 3.3 19:24:37 37° SSE 19:26:12 88° WSW 19:30:22 10° NNW
DNEPR-1 R/B 3.9 19:23:09 10° SSW 19:27:47 57° ESE 19:30:36 27° NE
Meteor 1-22 Rocket 4.3 19:23:24 10° SSW 19:28:50 79° WNW 19:34:33 10° N
S3M 4.3 19:23:05 10° N 19:29:02 44° ENE 19:30:09 40° E
Cosmos 773 Rocket 4.3 19:25:07 10° NNW 19:30:17 48° ENE 19:31:00 45° E
Cosmos 1300 Rocket 3.4 19:30:15 50° SSE 19:31:13 69° E 19:35:34 10° NNE
CSL-04 Debris 4.3 19:28:02 15° S 19:32:30 75° WSW 19:37:55 10° NNW
Cosmos 1627 Rocket 4.5 19:30:23 10° SSW 19:36:30 82° W 19:42:41 10° N
USA 81 4.3 19:33:19 10° N 19:38:34 69° W 19:43:21 12° S
Cosmos 2360 Rocket 2.1 19:33:18 10° SSW 19:38:49 60° ESE 19:44:23 10° NE
Cosmos 1782 Rocket 4.1 19:35:21 10° SSW 19:39:39 59° WNW 19:43:59 10° N
Cosmos 1025 Rocket 3.6 19:38:26 10° NNW 19:42:40 55° W 19:44:51 26° SSW
Cosmos 158 Rocket 4.3 19:40:31 10° NNW 19:44:48 43° NE 19:44:48 43° NE
Okean O Rocket 4.0 19:44:08 10° SW 19:47:32 22° W 19:50:59 10° NW
Cosmos 1417 Rocket 4.3 19:43:27 10° N 19:49:36 71° ENE 19:51:03 52° SE
Cosmos 968 Rocket 4.5 19:45:01 10° SW 19:50:05 47° WNW 19:55:09 10° NNE
Lacrosse 4 Rocket 1.8 19:47:04 10° SW 19:50:17 54° SW 19:50:17 54° SW
Cosmos 2026 Rocket 4.3 19:47:07 10° SSW 19:53:06 64° WNW 19:59:11 10° N
USA 186 3.7 19:55:51 28° WSW 19:56:13 29° W 19:59:14 10° NNW
CSL-04 Rocket 4.3 19:55:05 21° S 19:58:32 52° W 20:03:50 10° NNW
ATLAS 2AS CENTAUR R/B 3.9 19:52:37 10° NW 19:59:08 33° NNE 20:01:35 26° NE
MOS 1 4.1 20:01:33 71° ESE 20:02:04 77° ENE 20:07:46 10° NNW
Cosmos 1553 Rocket 4.2 19:57:01 10° NNW 20:03:23 74° W 20:06:33 32° S
Landsat 7 4.2 20:04:06 49° SW 20:04:59 58° W 20:09:40 10° NNW
deb Chang Zheng 4 4.0 20:05:56 55° NW 20:05:56 55° NW 20:09:21 10° NNW
Cosmos 1536 Rocket 4.3 20:01:39 10° N 20:04:43 44° N 20:04:43 44° N
SPOT 1/Viking Rocket 3.4 20:07:54 80° NNE 20:07:54 80° NNE 20:12:51 10° NNW
Cosmos 2322 Rocket 2.6 20:02:18 10° SW 20:07:57 63° WNW 20:13:39 10° NNE
NOSS 3-4 (A) 3.8 20:04:07 10° NW 20:10:52 69° NE 20:12:04 59° E
NOSS 3-4 (C) 3.8 20:04:13 10° NW 20:10:58 69° NE 20:12:10 59° E
Ariane Rocket 3.5 20:16:26 49° NNE 20:16:26 49° NNE 20:20:19 10° N
NOSS 3-3 (A) 4.2 20:15:57 10° SW 20:30:26 - NE 20:20:03 52° SSW
NOSS 3-3 (C) 4.3 20:16:03 10° SW 20:30:31 - NE 20:19:58 48° SSW
Aureole 1 Rocket 3.9 20:18:38 10° SSW 20:25:58 89° WNW 20:31:42 10° NNE
USA 215 3.8 20:24:15 34° NE 20:26:48 51° N 20:33:05 10° W
USA 281 3.7 20:27:40 44° NE 20:27:40 44° NE 20:33:37 10° NNW
Meteor 1-16 Rocket 4.4 20:30:32 72° N 20:30:32 72° N 20:35:52 10° NNE
Cosmos 1844 Rocket 4.2 20:27:59 10° NW 20:32:50 30° WSW 20:34:40 25° SW
Resurs 01 Rocket 3.0 20:38:52 36° NW 20:38:52 36° NW 20:41:52 10° NNW
Cosmos 2315 Rocket 4.1 20:32:16 10° N 20:37:56 70° NNE 20:37:56 70° NNE
SL-16 R/B 3.8 20:33:40 10° WSW 20:38:44 32° NW 20:43:50 10° NNE
Terra 3.9 20:42:42 20° N 20:42:42 20° N 20:44:21 10° N
Cosmos 1943 Rocket 3.8 20:35:44 10° NNW 20:38:59 23° NNE 20:38:59 23° NNE
Cosmos 2278 Rocket 3.0 20:43:31 10° NNW 20:47:32 44° N 20:47:32 44° N
Gbstr 26 Del rocket 4.4 20:46:40 10° W 20:54:42 81° N 20:55:06 78° NE
Cosmos 2369 Rocket 4.3 20:55:44 10° N 20:58:48 17° NNE 20:58:48 17° NNE
Cosmos 2333 Rocket 4.2 21:18:31 21° NNE 21:18:31 21° NNE 21:20:27 10° NNE
Cosmos 2360 Rocket 3.8 21:18:14 10° WSW 21:23:12 31° NW 21:28:13 10° NNE
ATLAS 2AS CENTAUR R/B 3.6 21:44:04 10° NW 21:49:00 45° NNW 21:49:00 45° NNW
USA 215 4.4 22:11:37 38° NW 22:11:37 38° NW 22:15:39 10° WNW
